• In Deutschland
  • Länderverzeichnis
  • Für 7 Tage
  • Wassertemperatur
  • Satellitenkarten
  • Wetterkarte
  • Widgets
  • user-avatar
    Anmelden

    Stündliche Wetter Gmund

    Heute, 24 Oktober, Dienstag

    Zeit Temperatur Niederschläge Wind Luftdruck Luftfeuchtigkeit
    00:00 +3°C° 0,5 mm 2 m/S 676 mmHg 95%
    01:00 +3°C° 0,5 mm 2 m/S 676 mmHg 95%
    02:00 +3°C° 0,4 mm 2 m/S 677 mmHg 95%
    03:00 +3°C° 0,4 mm 2 m/S 677 mmHg 95%
    04:00 +3°C° 0,4 mm 2 m/S 677 mmHg 95%
    05:00 +3°C° 0,2 mm 2 m/S 677 mmHg 95%
    06:00 +3°C° 0,2 mm 2 m/S 677 mmHg 95%
    07:00 +3°C° 0,2 mm 2 m/S 677 mmHg 95%
    08:00 +4°C° 0 mm 2 m/S 678 mmHg 93%
    09:00 +4°C° 0 mm 2 m/S 678 mmHg 92%
    10:00 +5°C° 0 mm 2 m/S 678 mmHg 90%
    11:00 +6°C° 0 mm 2 m/S 678 mmHg 86%
    12:00 +8°C° 0 mm 1 m/S 678 mmHg 82%
    13:00 +9°C° 0 mm 1 m/S 678 mmHg 79%
    14:00 +9°C° 0 mm 1 m/S 678 mmHg 80%
    15:00 +9°C° 0 mm 1 m/S 678 mmHg 82%
    16:00 +9°C° 0 mm 1 m/S 678 mmHg 83%
    17:00 +8°C° 0 mm 1 m/S 678 mmHg 84%
    18:00 +6°C° 0 mm 1 m/S 678 mmHg 85%
    19:00 +4°C° 0 mm 2 m/S 679 mmHg 85%
    20:00 +4°C° 0 mm 2 m/S 679 mmHg 85%
    21:00 +3°C° 0 mm 2 m/S 679 mmHg 84%
    22:00 +3°C° 0 mm 2 m/S 679 mmHg 83%
    23:00 +3°C° 0 mm 2 m/S 678 mmHg 82%

    Morgen, 25 Oktober, Mittwoch

    Zeit Temperatur Niederschläge Wind Luftdruck Luftfeuchtigkeit
    00:00 +3°C° 0 mm 2 m/S 678 mmHg 81%
    01:00 +3°C° 0 mm 2 m/S 678 mmHg 79%
    02:00 +3°C° 0 mm 2 m/S 678 mmHg 79%
    03:00 +3°C° 0 mm 2 m/S 678 mmHg 78%
    04:00 +3°C° 0 mm 2 m/S 678 mmHg 78%
    05:00 +4°C° 0 mm 2 m/S 678 mmHg 78%
    06:00 +4°C° 0 mm 2 m/S 678 mmHg 79%
    07:00 +4°C° 0 mm 2 m/S 678 mmHg 79%
    08:00 +7°C° 0 mm 1 m/S 678 mmHg 77%
    09:00 +9°C° 0 mm 1 m/S 679 mmHg 75%
    10:00 +11°C° 0 mm 1 m/S 679 mmHg 74%
    11:00 +12°C° 0 mm 1 m/S 679 mmHg 72%
    12:00 +13°C° 0 mm 1 m/S 679 mmHg 70%
    13:00 +13°C° 0 mm 0 m/S 680 mmHg 68%
    14:00 +14°C° 0 mm 1 m/S 679 mmHg 72%
    15:00 +13°C° 0 mm 1 m/S 679 mmHg 76%
    16:00 +12°C° 0 mm 1 m/S 679 mmHg 80%
    17:00 +11°C° 0 mm 1 m/S 679 mmHg 83%
    18:00 +9°C° 0 mm 1 m/S 679 mmHg 85%
    19:00 +8°C° 0 mm 1 m/S 679 mmHg 88%
    20:00 +7°C° 0 mm 1 m/S 679 mmHg 87%
    21:00 +7°C° 0 mm 1 m/S 679 mmHg 87%
    22:00 +6°C° 0 mm 2 m/S 679 mmHg 87%
    23:00 +6°C° 0 mm 2 m/S 679 mmHg 85%

    übermorgen, 26 Oktober, Donnerstag

    Zeit Temperatur Niederschläge Wind Luftdruck Luftfeuchtigkeit
    00:00 +6°C° 0 mm 2 m/S 679 mmHg 84%
    01:00 +7°C° 0 mm 1 m/S 679 mmHg 82%
    02:00 +7°C° 0 mm 1 m/S 679 mmHg 81%
    03:00 +7°C° 0 mm 1 m/S 679 mmHg 79%
    04:00 +7°C° 0 mm 1 m/S 679 mmHg 78%
    05:00 +6°C° 0 mm 2 m/S 679 mmHg 78%
    06:00 +6°C° 0 mm 2 m/S 679 mmHg 77%
    07:00 +6°C° 0 mm 2 m/S 679 mmHg 77%
    08:00 +9°C° 0 mm 1 m/S 679 mmHg 74%
    09:00 +11°C° 0 mm 1 m/S 680 mmHg 71%
    10:00 +13°C° 0 mm 1 m/S 680 mmHg 69%
    11:00 +14°C° 0 mm 1 m/S 680 mmHg 66%
    12:00 +15°C° 0 mm 1 m/S 680 mmHg 64%
    13:00 +16°C° 0 mm 1 m/S 680 mmHg 61%
    14:00 +15°C° 0 mm 1 m/S 680 mmHg 66%
    15:00 +15°C° 0 mm 1 m/S 679 mmHg 71%
    16:00 +13°C° 0 mm 0 m/S 679 mmHg 76%
    17:00 +12°C° 0 mm 1 m/S 679 mmHg 78%
    18:00 +11°C° 0 mm 1 m/S 678 mmHg 81%
    19:00 +8°C° 0 mm 2 m/S 678 mmHg 84%
    20:00 +8°C° 0 mm 2 m/S 678 mmHg 83%
    21:00 +7°C° 0 mm 2 m/S 678 mmHg 82%
    22:00 +7°C° 0 mm 2 m/S 678 mmHg 82%
    23:00 +7°C° 0 mm 2 m/S 678 mmHg 80%

    27 Oktober, Freitag

    Zeit Temperatur Niederschläge Wind Luftdruck Luftfeuchtigkeit
    00:00 +7°C° 0 mm 2 m/S 677 mmHg 78%
    01:00 +7°C° 0 mm 2 m/S 677 mmHg 76%
    02:00 +7°C° 0 mm 2 m/S 676 mmHg 75%
    03:00 +6°C° 0 mm 2 m/S 676 mmHg 74%
    04:00 +6°C° 0 mm 2 m/S 676 mmHg 73%
    05:00 +6°C° 0 mm 2 m/S 675 mmHg 73%
    06:00 +6°C° 0 mm 2 m/S 675 mmHg 73%
    07:00 +6°C° 0 mm 2 m/S 675 mmHg 73%
    08:00 +8°C° 0 mm 3 m/S 675 mmHg 71%
    09:00 +10°C° 0 mm 3 m/S 675 mmHg 70%
    10:00 +12°C° 0 mm 4 m/S 675 mmHg 68%
    11:00 +12°C° 0 mm 4 m/S 675 mmHg 67%
    12:00 +13°C° 0 mm 4 m/S 674 mmHg 66%
    13:00 +13°C° 0 mm 5 m/S 674 mmHg 66%
    14:00 +11°C° 0,8 mm 4 m/S 674 mmHg 74%
    15:00 +10°C° 0,8 mm 4 m/S 673 mmHg 83%
    16:00 +9°C° 0,8 mm 3 m/S 673 mmHg 92%
    17:00 +8°C° 2,2 mm 3 m/S 673 mmHg 93%
    18:00 +8°C° 2,2 mm 3 m/S 673 mmHg 94%
    19:00 +7°C° 2,2 mm 3 m/S 673 mmHg 95%
    20:00 +7°C° 2,3 mm 3 m/S 673 mmHg 95%
    21:00 +5°C° 2,3 mm 3 m/S 673 mmHg 95%
    22:00 +5°C° 2,3 mm 2 m/S 674 mmHg 95%
    23:00 +5°C° 0,4 mm 2 m/S 674 mmHg 96%

    28 Oktober, Samstag

    Zeit Temperatur Niederschläge Wind Luftdruck Luftfeuchtigkeit
    00:00 +4°C° 0,4 mm 2 m/S 674 mmHg 96%
    01:00 +4°C° 0,4 mm 2 m/S 674 mmHg 96%
    02:00 +4°C° 0,1 mm 2 m/S 673 mmHg 96%
    03:00 +3°C° 0,1 mm 2 m/S 673 mmHg 96%
    04:00 +3°C° 0,1 mm 2 m/S 673 mmHg 96%
    05:00 +3°C° 0 mm 2 m/S 673 mmHg 96%
    06:00 +2°C° 0 mm 2 m/S 672 mmHg 96%
    07:00 +2°C° 0 mm 2 m/S 672 mmHg 96%
    08:00 +3°C° 0 mm 2 m/S 672 mmHg 91%
    09:00 +3°C° 0 mm 3 m/S 672 mmHg 86%
    10:00 +4°C° 0 mm 3 m/S 671 mmHg 82%
    11:00 +5°C° 0 mm 4 m/S 671 mmHg 75%
    12:00 +6°C° 0 mm 4 m/S 670 mmHg 68%
    13:00 +6°C° 0 mm 4 m/S 669 mmHg 62%
    14:00 +6°C° 0 mm 4 m/S 668 mmHg 63%
    15:00 +5°C° 0 mm 4 m/S 667 mmHg 65%
    16:00 +5°C° 0 mm 3 m/S 666 mmHg 67%
    17:00 +4°C° 0,5 mm 3 m/S 665 mmHg 73%
    18:00 +3°C° 0,5 mm 3 m/S 664 mmHg 79%
    19:00 +2°C° 0,5 mm 3 m/S 663 mmHg 86%
    20:00 +2°C° 1,3 mm 3 m/S 663 mmHg 88%
    21:00 +2°C° 1,3 mm 3 m/S 662 mmHg 90%
    22:00 +2°C° 1,3 mm 3 m/S 661 mmHg 92%
    23:00 +1°C° 1,9 mm 4 m/S 660 mmHg 92%

    29 Oktober, Sonntag

    Zeit Temperatur Niederschläge Wind Luftdruck Luftfeuchtigkeit
    00:00 +1°C° 1,9 mm 4 m/S 660 mmHg 93%
    01:00 +1°C° 1,9 mm 4 m/S 660 mmHg 94%
    02:00 0°C° 1,6 mm 4 m/S 660 mmHg 94%
    03:00 -1°C° 1,6 mm 4 m/S 660 mmHg 93%
    04:00 -2°C° 1,6 mm 4 m/S 661 mmHg 93%
    05:00 -2°C° 0,6 mm 4 m/S 661 mmHg 93%
    06:00 -2°C° 0,6 mm 4 m/S 661 mmHg 93%
    07:00 -1°C° 0,6 mm 3 m/S 661 mmHg 93%
    08:00 -2°C° 1 mm 4 m/S 661 mmHg 92%
    09:00 -2°C° 1 mm 4 m/S 661 mmHg 92%
    10:00 -2°C° 1 mm 5 m/S 661 mmHg 92%
    11:00 -1°C° 1,3 mm 5 m/S 661 mmHg 92%
    12:00 -1°C° 1,3 mm 5 m/S 661 mmHg 92%
    13:00 -1°C° 1,3 mm 5 m/S 661 mmHg 93%
    14:00 -1°C° 1,9 mm 4 m/S 662 mmHg 93%
    15:00 0°C° 1,9 mm 4 m/S 662 mmHg 93%
    16:00 0°C° 1,9 mm 4 m/S 662 mmHg 93%
    17:00 -1°C° 0,8 mm 4 m/S 663 mmHg 94%
    18:00 0°C° 0,8 mm 3 m/S 664 mmHg 95%
    19:00 -1°C° 0,8 mm 3 m/S 665 mmHg 96%
    20:00 -1°C° 0,5 mm 3 m/S 666 mmHg 96%
    21:00 -1°C° 0,5 mm 3 m/S 667 mmHg 96%
    22:00 -1°C° 0,5 mm 2 m/S 668 mmHg 96%
    23:00 -1°C° 0,3 mm 2 m/S 668 mmHg 97%

    30 Oktober, Montag

    Zeit Temperatur Niederschläge Wind Luftdruck Luftfeuchtigkeit
    00:00 -1°C° 0,3 mm 2 m/S 669 mmHg 97%
    01:00 -1°C° 0,3 mm 2 m/S 669 mmHg 97%
    02:00 -1°C° 0,6 mm 2 m/S 669 mmHg 97%
    03:00 -1°C° 0,6 mm 3 m/S 669 mmHg 97%
    04:00 -1°C° 0,6 mm 3 m/S 670 mmHg 96%
    05:00 -1°C° 1,1 mm 3 m/S 670 mmHg 96%
    06:00 -1°C° 1,1 mm 3 m/S 670 mmHg 96%
    07:00 0°C° 1,1 mm 3 m/S 671 mmHg 96%
    08:00 0°C° 0,4 mm 3 m/S 671 mmHg 95%
    09:00 0°C° 0,4 mm 3 m/S 672 mmHg 95%
    10:00 +1°C° 0,4 mm 3 m/S 672 mmHg 95%
    11:00 +1°C° 0,2 mm 3 m/S 672 mmHg 94%
    12:00 +1°C° 0,2 mm 3 m/S 672 mmHg 94%
    13:00 +2°C° 0,2 mm 3 m/S 672 mmHg 93%
    14:00 +1°C° 0,3 mm 3 m/S 672 mmHg 93%
    15:00 +1°C° 0,3 mm 3 m/S 672 mmHg 93%
    16:00 +1°C° 0,3 mm 3 m/S 672 mmHg 93%
    17:00 +1°C° 0,2 mm 3 m/S 672 mmHg 94%
    18:00 0°C° 0,2 mm 3 m/S 672 mmHg 94%
    19:00 0°C° 0,2 mm 3 m/S 673 mmHg 94%
    20:00 -1°C° 0 mm 3 m/S 673 mmHg 94%
    21:00 -1°C° 0 mm 3 m/S 673 mmHg 93%
    22:00 -2°C° 0 mm 3 m/S 673 mmHg 93%
    23:00 -1°C° 0,1 mm 3 m/S 673 mmHg 92%
    Mehr zeigen